OneWeb SL0365

operational
NORAD ID: 49291 Int'l Des: 2021-090 Owner: ONEWEBN Country: UK Constellation: oneweb
LEOCIRCULARPOLARONEWEB_TYPE

Über OneWeb SL0365

Beschreibung wird geladen...

Live-Position

3D-Globus wird geladen...

Nächste Überflüge

Höhenverlauf

Altitude vs Time

uPlot chart will show altitude changes over time

Zweizeiliger Elementsatz

1 49291U 21090N 26035.35567333 .00000126 00000-0 28209-3 0 9991
2 49291 87.9258 331.3966 0001662 80.3667 279.7653 13.19725545208902
Epoch: 4. Feb. 2026 • Age: 12 hours

Aktueller Status

Höhe 1206.1 km
Geschwindigkeit 7.25 km/s
Subsatellitenpunkt -49.43°S, 69.51°E
Startdatum 14. Okt. 2021
Alter 4.3 years
Typ internet

Technische Details

Klassifizierung Payload
Masse 148.00 kg
Trockenmasse 140.00 kg
Gesamtmasse 148.00 kg
Länge 1.30 m
Durchmesser 1.00 m
Spannweite 5.00 m
Form Trapezoid+2 pan
Hersteller ONEWUS
Bus-Typ ARROW
Phasenstatus In Orbit
Besitzer/Staat ONEWEBN/UK

Große Konstellationen

Loading constellations...